Regional Weather Roundup
Issued by NWS

Home | Current Version | Previous Version | Graphics & Text | Print | Product List | Glossary On
Versions: 1 2 3 4 5 6 7 8 9 10 11 12 13 14 15 16 17 18 19 20 21 22 23 24 25 26 27 28 29 30 31 32 33 34 35 36 37 38 39 40 41 42 43 44 45 46 47 48 49 50
000
ASUS43 KDTX 211501
RWRMI
MICHIGAN HOURLY REGIONAL WEATHER ROUNDUP
NATIONAL WEATHER SERVICE DETROIT/PONTIAC MI
1000 AM EST SAT JAN 21 2017

NOTE: "FAIR" INDICATES FEW OR NO CLOUDS BELOW 12,000 FEET WITH NO
SIGNIFICANT WEATHER AND/OR OBSTRUCTION TO VISIBILITY.

MIZ047>049-052>055-059>063-066>070-074>076-081>083-211600-
SOUTHEAST LOWER MICHIGAN

CITY           SKY/WX    TMP DP  RH WIND       PRES   REMARKS
ADRIAN         FOG       41  41 100 CALM      29.68R VSB 1/4
ALMA           FOG       39  38  99 CALM      29.64S VSB<1/4
ANN ARBOR      FOG       42  42 100 CALM      29.68R VSB 1/4
BAD AXE        FOG       40  40 100 SE6       29.68F VSB 1/4
CARO           CLOUDY    41  41 100 SE6       29.66S FOG
DETROIT CITY   FOG       41  41 100 CALM      29.69F VSB 1/4
DETROIT        FOG       42  42 100 CALM      29.70R VSB 1/8
FLINT          FOG       44  44 100 S9        29.66S VSB 1/2
GROSSE ILE     CLOUDY    44  43  99 S6        29.68R FOG
HILLSDALE      FOG       45  45 100 S7        29.65R VSB<1/4
HOWELL         FOG       45  44  96 S8        29.66R VSB 1/2

CITY           SKY/WX    TMP DP  RH WIND       PRES   REMARKS
JACKSON        FOG       47  46  97 S9        29.65R VSB 3/4
LAMBERTVILLE   SUNNY     51  47  87 S7        29.68S
LANSING        MOSUNNY   47  44  90 SE9       29.64S FOG
LAPEER         FOG       41  41  99 SE6       29.67F VSB 1/4
MASON          FOG       46  46 100 S9        29.65S VSB 1
MONROE         SUNNY     45  45 100 SE3       29.67S FOG
MT. CLEMENS    FOG       40  40 100 SE3       29.67S VSB 1/2
PONTIAC        FOG       40  39  97 SE3       29.66F VSB 1/8
PORT HOPE        N/A     38  38 100 SE7       29.67F WCI  33
PORT HURON     FOG       41  41 100 SE5       29.69F VSB 1/4
TRI CITIES     FOG       39  39 100 E3        29.65F VSB 1/4
MIDLAND        CLOUDY    38  37  97 E3        29.64F FOG
TROY           FOG       40  39  96 CALM      29.70S VSB<1/4
SAGINAW HB     PTSUNNY   41  37  87 SE3       29.65F FOG
$$
MIZ043>046-050>051-056>058-064>065-071>073-077>080-211600-
SOUTHWEST LOWER MICHIGAN

CITY           SKY/WX    TMP DP  RH WIND       PRES   REMARKS
BENTON HARBOR  CLOUDY    52  49  89 SE9       29.57F FOG
BIG RAPIDS     FOG       36  35  97 E3        29.61S VSB<1/4
COLDWATER      FOG       47  47 100 S6        29.64R VSB 1
FREMONT        FOG       39  39 100 E7        29.59F VSB 1   WCI  34
HOLLAND        CLOUDY    49  48  97 S9        29.59S
GRAND RAPIDS   FOG       44  42  93 E5        29.60F VSB 1/4
IONIA          FOG       38  38  99 CALM      29.62S VSB<1/4
KALAMAZOO      CLOUDY    49  46  90 S8        29.62S FOG
LUDINGTON      MIX PCPN  39  39 100 E6        29.57F VSB 1   WCI  35
MARSHALL       CLOUDY    49  48  99 S7        29.63R FOG
MOUNT PLEASANT FOG       36  36  99 CALM      29.64S VSB<1/4
MUSKEGON       CLOUDY    46  45  96 SE8       29.58F FOG
SOUTH HAVEN    MOSUNNY   51  49  95 S8        29.58R FOG
$$
MIZ016>042-211600-
NORTHERN LOWER MICHIGAN

CITY           SKY/WX    TMP DP  RH WIND       PRES   REMARKS
ALPENA         CLOUDY    33  31  92 E5        29.69F FOG     WCI  29
BEAVER ISLAND  CLOUDY    34  34 100 E6        29.62F FOG     WCI  28
BELLAIRE       CLOUDY    36  35  97 CALM      29.64R FOG
CADILLAC       FOG       35  34  96 E3        29.60S VSB 1/4
CHARLEVOIX     CLOUDY    35  35 100 E6        29.65R WCI  30
FRANKFORT      CLOUDY    39  39  99 SE8       29.59F FOG     WCI  34
GAYLORD        FOG       35  32  88 SE8       29.62S VSB 3/4 WCI  29
GRAYLING       FOG       35  35  99 E5        29.64S VSB 1   WCI  31
HARBOR SPRINGS CLOUDY    34  33  97 E9        29.63F WCI  26
HOUGHTON LAKE  FOG       35  35 100 SE7       29.63S VSB 1/2 WCI  29
MANISTEE       LGT RAIN  38  37  97 E8        29.58S FOG     WCI  32
OSCODA         FOG       36  35  97 CALM      29.68F VSB 1/4
PELLSTON       CLOUDY    35  32  88 E5        29.64F WCI  31
ROGERS CITY    CLOUDY    33  32  96 SE5       29.68F FOG     WCI  29
TRAVERSE CITY  CLOUDY    38  36  92 VRB3      29.61F
$$
MIZ007>008-015-211600-
EASTERN UPPER MICHIGAN

CITY           SKY/WX    TMP DP  RH WIND       PRES   REMARKS
KINROSS        FOG       32  32 100 E9        29.67R VSB<1/4 WCI  24
MACKINAC ISLAN FOG       33  33 100 E9        29.65F VSB 1   WCI  25
NEWBERRY       CLOUDY    32  32  99 E7        29.63F FOG     WCI  26
S. S. MARIE    FOG       34  32  92 SE9       29.67S VSB 1   WCI  27
MUNISING         N/A     35  35 100 S5        29.60F WCI  31
$$
MIZ004>006-011>014-085-211600-
CENTRAL UPPER MICHIGAN

CITY           SKY/WX    TMP DP  RH WIND       PRES   REMARKS
MANISTIQUE     CLOUDY    33  32  96 E7        29.62S FOG     WCI  27
ESCANABA       FOG       35  35 100 E3        29.61R VSB 1/2
SAWYER-GWINN   CLOUDY    32  32 100 CALM      29.57F FOG
$$
MIZ001>003-009>011-084-211600-
WESTERN UPPER MICHIGAN

CITY           SKY/WX    TMP DP  RH WIND       PRES   REMARKS
IRON MOUNTAIN  FOG       33  31  92 VRB5      29.56S VSB<1/4 WCI  29
HOUGHTON       FOG       34  32  92 E9        29.56F VSB 1/4 WCI  27
COPPER HARBOR    N/A     35  33  92 VRB5      29.59S WCI  31
IRONWOOD       CLOUDY    34  33  96 E7        29.52S WCI  28
$$

ABBREVIATIONS USED IN REMARKS
   TC - TEMPERATURE IN CELSIUS
  WCI - WIND CHILL INDEX
   HX - HEAT INDEX
  VSB - VISIBILITY




USA.gov is the U.S. government's official web portal to all federal, state and local government web resources and services.